contact:dominique.lefevre@mio.osupytheas.fr, maurice.libes@osupytheas.fr, didier.mallarino@osupytheas.fr
Project:EMSO http://www.emso-fr.org/EMSO-France
Depth: 2436.0 m
Title:EMSO Ligure Ouest : Data MII capteur MICROCAT
DateTime_Computer,Latitude,Longitude,Temperature,Conductivity,Pressure,DateTime_Instrument
DateTime_Computer,Latitude,Longitude,degC,S m-1,dbar,DateTime_Instrument
2023-08-09T00:00:14Z,42.805,6.029,13.3081,4.60149,2470.763,2023-8-09T02:02:32Z
2023-08-09T00:03:17Z,42.805,6.029,13.3054,4.60146,2470.777,2023-8-09T02:05:35Z
2023-08-09T00:06:20Z,42.805,6.029,13.3088,4.60137,2470.787,2023-8-09T02:08:38Z
2023-08-09T00:09:23Z,42.805,6.029,13.3109,4.60157,2470.763,2023-8-09T02:11:42Z
2023-08-09T00:12:26Z,42.805,6.029,13.3100,4.60151,2470.754,2023-8-09T02:14:45Z
2023-08-09T00:15:29Z,42.805,6.029,13.3101,4.60130,2470.763,2023-8-09T02:17:48Z
2023-08-09T00:18:32Z,42.805,6.029,13.3110,4.60138,2470.777,2023-8-09T02:20:51Z
2023-08-09T00:21:35Z,42.805,6.029,13.3112,4.60139,2470.787,2023-8-09T02:23:54Z
2023-08-09T00:24:38Z,42.805,6.029,13.3109,4.60158,2470.777,2023-8-09T02:26:57Z
2023-08-09T00:27:41Z,42.805,6.029,13.3098,4.60150,2470.8,2023-8-09T02:30:00Z
2023-08-09T00:30:44Z,42.805,6.029,13.3119,4.60135,2470.8,2023-8-09T02:33:03Z
2023-08-09T00:33:47Z,42.805,6.029,13.3120,4.60144,2470.777,2023-8-09T02:36:06Z
2023-08-09T00:36:50Z,42.805,6.029,13.3098,4.60152,2470.777,2023-8-09T02:39:09Z
2023-08-09T00:39:54Z,42.805,6.029,13.3076,4.60155,2470.763,2023-8-09T02:42:12Z
2023-08-09T00:42:57Z,42.805,6.029,13.3082,4.60154,2470.8,2023-8-09T02:45:15Z
2023-08-09T00:46:00Z,42.805,6.029,13.3076,4.60156,2470.777,2023-8-09T02:48:18Z
2023-08-09T00:49:03Z,42.805,6.029,13.3081,4.60150,2470.74,2023-8-09T02:51:21Z
2023-08-09T00:52:06Z,42.805,6.029,13.3078,4.60124,2470.754,2023-8-09T02:54:25Z
2023-08-09T00:55:09Z,42.805,6.029,13.3073,4.60146,2470.777,2023-8-09T02:57:28Z
2023-08-09T00:58:12Z,42.805,6.029,13.3087,4.60152,2470.763,2023-8-09T03:00:31Z
2023-08-09T01:01:15Z,42.805,6.029,13.3093,4.60132,2470.777,2023-8-09T03:03:34Z
2023-08-09T01:04:18Z,42.805,6.029,13.3073,4.60144,2470.763,2023-8-09T03:06:37Z
2023-08-09T01:07:21Z,42.805,6.029,13.3073,4.60152,2470.8,2023-8-09T03:09:40Z
2023-08-09T01:10:24Z,42.805,6.029,13.3120,4.60115,2470.754,2023-8-09T03:12:43Z
2023-08-09T01:13:27Z,42.805,6.029,13.3076,4.60129,2470.777,2023-8-09T03:15:46Z
2023-08-09T01:16:30Z,42.805,6.029,13.3076,4.60130,2470.74,2023-8-09T03:18:49Z
2023-08-09T01:19:33Z,42.805,6.029,13.3071,4.60135,2470.787,2023-8-09T03:21:52Z
2023-08-09T01:22:37Z,42.805,6.029,13.3080,4.60179,2470.754,2023-8-09T03:24:55Z
2023-08-09T01:25:40Z,42.805,6.029,13.3078,4.60159,2470.754,2023-8-09T03:27:58Z
2023-08-09T01:28:43Z,42.805,6.029,13.3084,4.60123,2470.787,2023-8-09T03:31:01Z
2023-08-09T01:31:46Z,42.805,6.029,13.3078,4.60150,2470.777,2023-8-09T03:34:05Z
2023-08-09T01:34:49Z,42.805,6.029,13.3088,4.60119,2470.754,2023-8-09T03:37:08Z
2023-08-09T01:37:52Z,42.805,6.029,13.3086,4.60124,2470.777,2023-8-09T03:40:11Z
2023-08-09T01:40:55Z,42.805,6.029,13.3092,4.60135,2470.763,2023-8-09T03:43:14Z
2023-08-09T01:43:58Z,42.805,6.029,13.3091,4.60127,2470.777,2023-8-09T03:46:17Z
2023-08-09T01:47:01Z,42.805,6.029,13.3095,4.60148,2470.754,2023-8-09T03:49:20Z
2023-08-09T01:50:04Z,42.805,6.029,13.3089,4.60150,2470.777,2023-8-09T03:52:23Z
2023-08-09T01:53:07Z,42.805,6.029,13.3089,4.60158,2470.777,2023-8-09T03:55:26Z
2023-08-09T01:56:10Z,42.805,6.029,13.3098,4.60157,2470.74,2023-8-09T03:58:29Z
2023-08-09T01:59:13Z,42.805,6.029,13.3122,4.60125,2470.81,2023-8-09T04:01:32Z
2023-08-09T02:02:17Z,42.805,6.029,13.3109,4.60126,2470.754,2023-8-09T04:04:35Z
2023-08-09T02:05:20Z,42.805,6.029,13.3098,4.60148,2470.754,2023-8-09T04:07:38Z
2023-08-09T02:08:23Z,42.805,6.029,13.3105,4.60130,2470.763,2023-8-09T04:10:41Z
2023-08-09T02:11:26Z,42.805,6.029,13.3100,4.60125,2470.754,2023-8-09T04:13:45Z
2023-08-09T02:14:29Z,42.805,6.029,13.3101,4.60139,2470.777,2023-8-09T04:16:48Z
2023-08-09T02:17:32Z,42.805,6.029,13.3067,4.60126,2470.74,2023-8-09T04:19:51Z
2023-08-09T02:20:35Z,42.805,6.029,13.3134,4.60127,2470.754,2023-8-09T04:22:54Z
2023-08-09T02:23:38Z,42.805,6.029,13.3111,4.60122,2470.763,2023-8-09T04:25:57Z
2023-08-09T02:26:41Z,42.805,6.029,13.3096,4.60145,2470.763,2023-8-09T04:29:00Z
2023-08-09T02:29:44Z,42.805,6.029,13.3110,4.60141,2470.717,2023-8-09T04:32:03Z
2023-08-09T02:32:47Z,42.805,6.029,13.3076,4.60127,2470.754,2023-8-09T04:35:06Z
2023-08-09T02:35:50Z,42.805,6.029,13.3072,4.60145,2470.777,2023-8-09T04:38:09Z
2023-08-09T02:38:53Z,42.805,6.029,13.3058,4.60127,2470.777,2023-8-09T04:41:12Z
2023-08-09T02:41:57Z,42.805,6.029,13.3061,4.60137,2470.763,2023-8-09T04:44:15Z
2023-08-09T02:45:00Z,42.805,6.029,13.3063,4.60131,2470.754,2023-8-09T04:47:18Z
2023-08-09T02:48:03Z,42.805,6.029,13.3069,4.60126,2470.74,2023-8-09T04:50:21Z
2023-08-09T02:51:06Z,42.805,6.029,13.3077,4.60151,2470.754,2023-8-09T04:53:25Z
2023-08-09T02:54:09Z,42.805,6.029,13.3082,4.60143,2470.754,2023-8-09T04:56:28Z
2023-08-09T02:57:12Z,42.805,6.029,13.3082,4.60151,2470.73,2023-8-09T04:59:31Z
2023-08-09T03:00:15Z,42.805,6.029,13.3085,4.60135,2470.754,2023-8-09T05:02:34Z
2023-08-09T03:03:18Z,42.805,6.029,13.3105,4.60140,2470.74,2023-8-09T05:05:37Z
2023-08-09T03:06:21Z,42.805,6.029,13.3116,4.60119,2470.73,2023-8-09T05:08:40Z
2023-08-09T03:09:24Z,42.805,6.029,13.3121,4.60137,2470.763,2023-8-09T05:11:43Z
2023-08-09T03:12:27Z,42.805,6.029,13.3128,4.60122,2470.777,2023-8-09T05:14:46Z
2023-08-09T03:15:30Z,42.805,6.029,13.3105,4.60140,2470.74,2023-8-09T05:17:49Z
2023-08-09T03:18:33Z,42.805,6.029,13.3099,4.60139,2470.707,2023-8-09T05:20:52Z
2023-08-09T03:21:37Z,42.805,6.029,13.3078,4.60128,2470.777,2023-8-09T05:23:55Z
2023-08-09T03:24:40Z,42.805,6.029,13.3084,4.60124,2470.754,2023-8-09T05:26:58Z
2023-08-09T03:27:43Z,42.805,6.029,13.3075,4.60132,2470.763,2023-8-09T05:30:01Z
2023-08-09T03:30:46Z,42.805,6.029,13.3078,4.60143,2470.73,2023-8-09T05:33:05Z
2023-08-09T03:33:49Z,42.805,6.029,13.3091,4.60140,2470.754,2023-8-09T05:36:08Z
2023-08-09T03:36:52Z,42.805,6.029,13.3103,4.60135,2470.74,2023-8-09T05:39:11Z
2023-08-09T03:39:55Z,42.805,6.029,13.3088,4.60133,2470.754,2023-8-09T05:42:14Z
2023-08-09T03:42:58Z,42.805,6.029,13.3091,4.60163,2470.717,2023-8-09T05:45:17Z
2023-08-09T03:46:01Z,42.805,6.029,13.3100,4.60140,2470.754,2023-8-09T05:48:20Z
2023-08-09T03:49:04Z,42.805,6.029,13.3082,4.60147,2470.74,2023-8-09T05:51:23Z
2023-08-09T03:52:07Z,42.805,6.029,13.3115,4.60134,2470.73,2023-8-09T05:54:26Z
2023-08-09T03:55:10Z,42.805,6.029,13.3120,4.60127,2470.717,2023-8-09T05:57:29Z
2023-08-09T03:58:13Z,42.805,6.029,13.3096,4.60154,2470.717,2023-8-09T06:00:32Z
2023-08-09T04:01:17Z,42.805,6.029,13.3092,4.60190,2470.74,2023-8-09T06:03:35Z
2023-08-09T04:04:20Z,42.805,6.029,13.3101,4.60181,2470.763,2023-8-09T06:06:38Z
2023-08-09T04:07:23Z,42.805,6.029,13.3104,4.60142,2470.777,2023-8-09T06:09:41Z
2023-08-09T04:10:26Z,42.805,6.029,13.3053,4.60125,2470.73,2023-8-09T06:12:45Z
2023-08-09T04:13:29Z,42.805,6.029,13.3040,4.60132,2470.717,2023-8-09T06:15:48Z
2023-08-09T04:16:32Z,42.805,6.029,13.3032,4.60178,2470.73,2023-8-09T06:18:51Z
2023-08-09T04:19:35Z,42.805,6.029,13.3031,4.60139,2470.754,2023-8-09T06:21:54Z
2023-08-09T04:22:38Z,42.805,6.029,13.3032,4.60162,2470.693,2023-8-09T06:24:57Z
2023-08-09T04:25:41Z,42.805,6.029,13.3029,4.60116,2470.74,2023-8-09T06:28:00Z
2023-08-09T04:28:44Z,42.805,6.029,13.3036,4.60130,2470.717,2023-8-09T06:31:03Z
2023-08-09T04:31:48Z,42.805,6.029,13.3034,4.60123,2470.74,2023-8-09T06:34:07Z
2023-08-09T04:34:51Z,42.805,6.029,13.3031,4.60112,2470.73,2023-8-09T06:37:10Z
2023-08-09T04:37:54Z,42.805,6.029,13.3031,4.60107,2470.717,2023-8-09T06:40:13Z
2023-08-09T04:40:57Z,42.805,6.029,13.3031,4.60109,2470.74,2023-8-09T06:43:16Z
2023-08-09T04:44:00Z,42.805,6.029,13.3034,4.60108,2470.717,2023-8-09T06:46:19Z
2023-08-09T04:47:03Z,42.805,6.029,13.3033,4.60108,2470.707,2023-8-09T06:49:22Z
2023-08-09T04:50:06Z,42.805,6.029,13.3032,4.60104,2470.754,2023-8-09T06:52:25Z
2023-08-09T04:53:09Z,42.805,6.029,13.3030,4.60104,2470.693,2023-8-09T06:55:28Z
2023-08-09T04:56:12Z,42.805,6.029,13.3031,4.60104,2470.726,2023-8-09T06:58:31Z
2023-08-09T04:59:16Z,42.805,6.029,13.3030,4.60104,2470.717,2023-8-09T07:01:34Z
2023-08-09T05:02:19Z,42.805,6.029,13.3031,4.60099,2470.74,2023-8-09T07:04:37Z
2023-08-09T05:05:22Z,42.805,6.029,13.3031,4.60099,2470.73,2023-8-09T07:07:40Z
2023-08-09T05:08:25Z,42.805,6.029,13.3032,4.60099,2470.73,2023-8-09T07:10:44Z
2023-08-09T05:11:28Z,42.805,6.029,13.3031,4.60098,2470.74,2023-8-09T07:13:47Z
2023-08-09T05:14:31Z,42.805,6.029,13.3032,4.60102,2470.693,2023-8-09T07:16:50Z
2023-08-09T05:17:34Z,42.805,6.029,13.3030,4.60099,2470.717,2023-8-09T07:19:53Z
2023-08-09T05:20:37Z,42.805,6.029,13.3029,4.60098,2470.73,2023-8-09T07:22:56Z
2023-08-09T05:23:40Z,42.805,6.029,13.3034,4.60095,2470.717,2023-8-09T07:25:59Z
2023-08-09T05:26:43Z,42.805,6.029,13.3031,4.60097,2470.717,2023-8-09T07:29:02Z
2023-08-09T05:29:46Z,42.805,6.029,13.3033,4.60097,2470.73,2023-8-09T07:32:05Z
2023-08-09T05:32:49Z,42.805,6.029,13.3028,4.60097,2470.717,2023-8-09T07:35:08Z
2023-08-09T05:35:52Z,42.805,6.029,13.3026,4.60097,2470.707,2023-8-09T07:38:11Z
2023-08-09T05:38:55Z,42.805,6.029,13.3031,4.60099,2470.74,2023-8-09T07:41:14Z
2023-08-09T05:41:59Z,42.805,6.029,13.3031,4.60099,2470.74,2023-8-09T07:44:17Z
2023-08-09T05:45:02Z,42.805,6.029,13.3030,4.60099,2470.73,2023-8-09T07:47:20Z
2023-08-09T05:48:05Z,42.805,6.029,13.3032,4.60097,2470.717,2023-8-09T07:50:24Z
2023-08-09T05:51:08Z,42.805,6.029,13.3031,4.60104,2470.754,2023-8-09T07:53:27Z
2023-08-09T05:54:11Z,42.805,6.029,13.3033,4.60102,2470.707,2023-8-09T07:56:30Z
2023-08-09T05:57:14Z,42.805,6.029,13.3031,4.60106,2470.693,2023-8-09T07:59:33Z
2023-08-09T06:00:17Z,42.805,6.029,13.3032,4.60101,2470.73,2023-8-09T08:02:36Z
2023-08-09T06:03:20Z,42.805,6.029,13.3033,4.60106,2470.707,2023-8-09T08:05:39Z
2023-08-09T06:06:23Z,42.805,6.029,13.3031,4.60103,2470.717,2023-8-09T08:08:42Z
2023-08-09T06:09:26Z,42.805,6.029,13.3034,4.60099,2470.73,2023-8-09T08:11:45Z
2023-08-09T06:12:29Z,42.805,6.029,13.3028,4.60102,2470.754,2023-8-09T08:14:48Z
2023-08-09T06:15:32Z,42.805,6.029,13.3030,4.60099,2470.693,2023-8-09T08:17:51Z
2023-08-09T06:18:36Z,42.805,6.029,13.3030,4.60114,2470.693,2023-8-09T08:20:54Z
2023-08-09T06:21:39Z,42.805,6.029,13.3034,4.60094,2470.67,2023-8-09T08:23:57Z
2023-08-09T06:24:42Z,42.805,6.029,13.3032,4.60094,2470.693,2023-8-09T08:27:00Z
2023-08-09T06:27:45Z,42.805,6.029,13.3032,4.60102,2470.717,2023-8-09T08:30:04Z
2023-08-09T06:30:48Z,42.805,6.029,13.3031,4.60093,2470.693,2023-8-09T08:33:06Z
2023-08-09T06:33:51Z,42.805,6.029,13.3029,4.60097,2470.67,2023-8-09T08:36:09Z
2023-08-09T06:36:54Z,42.805,6.029,13.3033,4.60092,2470.67,2023-8-09T08:39:13Z
2023-08-09T06:39:57Z,42.805,6.029,13.3031,4.60097,2470.67,2023-8-09T08:42:16Z
2023-08-09T06:43:00Z,42.805,6.029,13.3031,4.60099,2470.661,2023-8-09T08:45:19Z
2023-08-09T06:46:03Z,42.805,6.029,13.3032,4.60107,2470.707,2023-8-09T08:48:22Z
2023-08-09T06:49:06Z,42.805,6.029,13.3035,4.60103,2470.67,2023-8-09T08:51:25Z
2023-08-09T06:52:09Z,42.805,6.029,13.3034,4.60098,2470.693,2023-8-09T08:54:28Z
2023-08-09T06:55:12Z,42.805,6.029,13.3037,4.60096,2470.703,2023-8-09T08:57:31Z
2023-08-09T06:58:15Z,42.805,6.029,13.3039,4.60099,2470.693,2023-8-09T09:00:34Z
2023-08-09T07:01:18Z,42.805,6.029,13.3036,4.60094,2470.67,2023-8-09T09:03:37Z
2023-08-09T07:04:21Z,42.805,6.029,13.3036,4.60097,2470.67,2023-8-09T09:06:40Z
2023-08-09T07:07:24Z,42.805,6.029,13.3041,4.60094,2470.707,2023-8-09T09:09:43Z
2023-08-09T07:10:28Z,42.805,6.029,13.3037,4.60102,2470.693,2023-8-09T09:12:46Z
2023-08-09T07:13:31Z,42.805,6.029,13.3031,4.60132,2470.67,2023-8-09T09:15:49Z
2023-08-09T07:16:34Z,42.805,6.029,13.3036,4.60101,2470.67,2023-8-09T09:18:52Z
2023-08-09T07:19:37Z,42.805,6.029,13.3033,4.60097,2470.684,2023-8-09T09:21:56Z
2023-08-09T07:22:40Z,42.805,6.029,13.3031,4.60099,2470.693,2023-8-09T09:24:59Z
2023-08-09T07:25:43Z,42.805,6.029,13.3034,4.60093,2470.67,2023-8-09T09:28:02Z
2023-08-09T07:28:46Z,42.805,6.029,13.3031,4.60093,2470.707,2023-8-09T09:31:05Z
2023-08-09T07:31:49Z,42.805,6.029,13.3030,4.60096,2470.67,2023-8-09T09:34:08Z
2023-08-09T07:34:52Z,42.805,6.029,13.3028,4.60094,2470.67,2023-8-09T09:37:11Z
2023-08-09T07:37:55Z,42.805,6.029,13.3028,4.60092,2470.67,2023-8-09T09:40:14Z
2023-08-09T07:40:58Z,42.805,6.029,13.3032,4.60092,2470.707,2023-8-09T09:43:17Z
2023-08-09T07:44:01Z,42.805,6.029,13.3031,4.60092,2470.684,2023-8-09T09:46:20Z
2023-08-09T07:47:04Z,42.805,6.029,13.3033,4.60095,2470.684,2023-8-09T09:49:23Z
2023-08-09T07:50:08Z,42.805,6.029,13.3033,4.60092,2470.693,2023-8-09T09:52:26Z
2023-08-09T07:53:11Z,42.805,6.029,13.3034,4.60093,2470.693,2023-8-09T09:55:29Z
2023-08-09T07:56:14Z,42.805,6.029,13.3031,4.60092,2470.67,2023-8-09T09:58:33Z
2023-08-09T07:59:17Z,42.805,6.029,13.3032,4.60094,2470.67,2023-8-09T10:01:36Z
2023-08-09T08:02:20Z,42.805,6.029,13.3033,4.60092,2470.67,2023-8-09T10:04:39Z
2023-08-09T08:05:23Z,42.805,6.029,13.3030,4.60093,2470.73,2023-8-09T10:07:42Z
2023-08-09T08:08:26Z,42.805,6.029,13.3032,4.60093,2470.693,2023-8-09T10:10:45Z
2023-08-09T08:11:29Z,42.805,6.029,13.3031,4.60099,2470.693,2023-8-09T10:13:48Z
2023-08-09T08:14:32Z,42.805,6.029,13.3029,4.60094,2470.693,2023-8-09T10:16:51Z
2023-08-09T08:17:35Z,42.805,6.029,13.3032,4.60093,2470.684,2023-8-09T10:19:54Z
2023-08-09T08:20:38Z,42.805,6.029,13.3032,4.60094,2470.693,2023-8-09T10:22:57Z
2023-08-09T08:23:41Z,42.805,6.029,13.3033,4.60105,2470.67,2023-8-09T10:26:00Z
2023-08-09T08:26:45Z,42.805,6.029,13.3031,4.60097,2470.693,2023-8-09T10:29:03Z
2023-08-09T08:29:48Z,42.805,6.029,13.3034,4.60092,2470.67,2023-8-09T10:32:06Z
2023-08-09T08:32:50Z,42.805,6.029,13.3033,4.60111,2470.693,2023-8-09T10:35:09Z
2023-08-09T08:35:54Z,42.805,6.029,13.3033,4.60094,2470.67,2023-8-09T10:38:12Z
2023-08-09T08:38:57Z,42.805,6.029,13.3034,4.60092,2470.67,2023-8-09T10:41:15Z
2023-08-09T08:42:00Z,42.805,6.029,13.3034,4.60107,2470.707,2023-8-09T10:44:19Z
2023-08-09T08:45:03Z,42.805,6.029,13.3030,4.60101,2470.684,2023-8-09T10:47:22Z
2023-08-09T08:48:06Z,42.805,6.029,13.3036,4.60096,2470.684,2023-8-09T10:50:25Z
2023-08-09T08:51:09Z,42.805,6.029,13.3033,4.60097,2470.717,2023-8-09T10:53:28Z
2023-08-09T08:54:12Z,42.805,6.029,13.3029,4.60094,2470.693,2023-8-09T10:56:31Z
2023-08-09T08:57:15Z,42.805,6.029,13.3031,4.60094,2470.693,2023-8-09T10:59:34Z
2023-08-09T09:00:18Z,42.805,6.029,13.3032,4.60094,2470.717,2023-8-09T11:02:37Z
2023-08-09T09:03:21Z,42.805,6.029,13.3034,4.60094,2470.684,2023-8-09T11:05:40Z
2023-08-09T09:06:24Z,42.805,6.029,13.3035,4.60096,2470.67,2023-8-09T11:08:43Z
2023-08-09T09:09:27Z,42.805,6.029,13.3031,4.60096,2470.67,2023-8-09T11:11:46Z
2023-08-09T09:12:31Z,42.805,6.029,13.3034,4.60099,2470.73,2023-8-09T11:14:49Z
2023-08-09T09:15:34Z,42.805,6.029,13.3032,4.60099,2470.693,2023-8-09T11:17:52Z
2023-08-09T09:18:37Z,42.805,6.029,13.3035,4.60094,2470.754,2023-8-09T11:20:55Z
2023-08-09T09:21:40Z,42.805,6.029,13.3031,4.60095,2470.707,2023-8-09T11:23:59Z
2023-08-09T09:24:43Z,42.805,6.029,13.3035,4.60096,2470.707,2023-8-09T11:27:02Z
2023-08-09T09:27:46Z,42.805,6.029,13.3034,4.60097,2470.693,2023-8-09T11:30:05Z
2023-08-09T09:30:49Z,42.805,6.029,13.3032,4.60099,2470.693,2023-8-09T11:33:08Z
2023-08-09T09:33:52Z,42.805,6.029,13.3033,4.60099,2470.717,2023-8-09T11:36:11Z
2023-08-09T09:36:55Z,42.805,6.029,13.3031,4.60095,2470.693,2023-8-09T11:39:14Z
2023-08-09T09:39:58Z,42.805,6.029,13.3032,4.60097,2470.73,2023-8-09T11:42:17Z
2023-08-09T09:43:01Z,42.805,6.029,13.3033,4.60094,2470.717,2023-8-09T11:45:20Z
2023-08-09T09:46:04Z,42.805,6.029,13.3031,4.60099,2470.693,2023-8-09T11:48:23Z
2023-08-09T09:49:08Z,42.805,6.029,13.3033,4.60094,2470.717,2023-8-09T11:51:26Z
2023-08-09T09:52:11Z,42.805,6.029,13.3034,4.60094,2470.717,2023-8-09T11:54:29Z
2023-08-09T09:55:14Z,42.805,6.029,13.3031,4.60092,2470.73,2023-8-09T11:57:33Z
2023-08-09T09:58:17Z,42.805,6.029,13.3029,4.60094,2470.74,2023-8-09T12:00:36Z
2023-08-09T10:01:20Z,42.805,6.029,13.3037,4.60095,2470.74,2023-8-09T12:03:39Z
2023-08-09T10:04:23Z,42.805,6.029,13.3037,4.60129,2470.754,2023-8-09T12:06:42Z
2023-08-09T10:07:26Z,42.805,6.029,13.3064,4.60119,2470.717,2023-8-09T12:09:45Z
2023-08-09T10:10:29Z,42.805,6.029,13.3053,4.60129,2470.74,2023-8-09T12:12:48Z
2023-08-09T10:13:32Z,42.805,6.029,13.3055,4.60149,2470.763,2023-8-09T12:15:51Z
2023-08-09T10:16:35Z,42.805,6.029,13.3064,4.60120,2470.74,2023-8-09T12:18:54Z
2023-08-09T10:19:38Z,42.805,6.029,13.3037,4.60117,2470.74,2023-8-09T12:21:57Z
2023-08-09T10:22:41Z,42.805,6.029,13.3066,4.60118,2470.717,2023-8-09T12:25:00Z
2023-08-09T10:25:45Z,42.805,6.029,13.3057,4.60144,2470.74,2023-8-09T12:28:03Z
2023-08-09T10:28:48Z,42.805,6.029,13.3064,4.60179,2470.726,2023-8-09T12:31:06Z
2023-08-09T10:31:49Z,42.805,6.029,13.3056,4.60208,2470.717,2023-8-09T12:34:08Z
2023-08-09T10:34:52Z,42.805,6.029,13.3050,4.60163,2470.74,2023-8-09T12:37:11Z
2023-08-09T10:37:55Z,42.805,6.029,13.3057,4.60141,2470.717,2023-8-09T12:40:14Z
2023-08-09T10:40:58Z,42.805,6.029,13.3048,4.60180,2470.763,2023-8-09T12:43:17Z
2023-08-09T10:44:01Z,42.805,6.029,13.3054,4.60198,2470.754,2023-8-09T12:46:20Z
2023-08-09T10:47:05Z,42.805,6.029,13.3075,4.60196,2470.754,2023-8-09T12:49:23Z
2023-08-09T10:50:08Z,42.805,6.029,13.3044,4.60152,2470.754,2023-8-09T12:52:26Z
2023-08-09T10:53:11Z,42.805,6.029,13.3043,4.60163,2470.754,2023-8-09T12:55:30Z
2023-08-09T10:56:14Z,42.805,6.029,13.3061,4.60162,2470.777,2023-8-09T12:58:33Z
2023-08-09T10:59:17Z,42.805,6.029,13.3056,4.60163,2470.787,2023-8-09T13:01:36Z
2023-08-09T11:02:20Z,42.805,6.029,13.3056,4.60195,2470.763,2023-8-09T13:04:39Z
2023-08-09T11:05:23Z,42.805,6.029,13.3058,4.60167,2470.777,2023-8-09T13:07:42Z
2023-08-09T11:08:26Z,42.805,6.029,13.3062,4.60200,2470.74,2023-8-09T13:10:45Z
2023-08-09T11:11:29Z,42.805,6.029,13.3042,4.60169,2470.754,2023-8-09T13:13:48Z
2023-08-09T11:14:32Z,42.805,6.029,13.3044,4.60132,2470.74,2023-8-09T13:16:51Z
2023-08-09T11:17:35Z,42.805,6.029,13.3051,4.60170,2470.777,2023-8-09T13:19:54Z
2023-08-09T11:20:38Z,42.805,6.029,13.3053,4.60144,2470.74,2023-8-09T13:22:57Z
2023-08-09T11:23:41Z,42.805,6.029,13.3043,4.60152,2470.763,2023-8-09T13:26:00Z
2023-08-09T11:26:45Z,42.805,6.029,13.3043,4.60170,2470.777,2023-8-09T13:29:03Z
2023-08-09T11:29:48Z,42.805,6.029,13.3048,4.60166,2470.763,2023-8-09T13:32:06Z
2023-08-09T11:32:51Z,42.805,6.029,13.3041,4.60155,2470.763,2023-8-09T13:35:10Z
2023-08-09T11:35:54Z,42.805,6.029,13.3046,4.60180,2470.763,2023-8-09T13:38:13Z
2023-08-09T11:38:57Z,42.805,6.029,13.3046,4.60156,2470.763,2023-8-09T13:41:16Z
2023-08-09T11:42:00Z,42.805,6.029,13.3053,4.60164,2470.777,2023-8-09T13:44:19Z
2023-08-09T11:45:03Z,42.805,6.029,13.3043,4.60160,2470.787,2023-8-09T13:47:22Z
2023-08-09T11:48:06Z,42.805,6.029,13.3058,4.60185,2470.787,2023-8-09T13:50:25Z
2023-08-09T11:51:09Z,42.805,6.029,13.3048,4.60155,2470.787,2023-8-09T13:53:28Z
2023-08-09T11:54:12Z,42.805,6.029,13.3058,4.60180,2470.777,2023-8-09T13:56:31Z
2023-08-09T11:57:15Z,42.805,6.029,13.3046,4.60163,2470.777,2023-8-09T13:59:34Z
2023-08-09T12:00:18Z,42.805,6.029,13.3061,4.60137,2470.763,2023-8-09T14:02:37Z
2023-08-09T12:03:22Z,42.805,6.029,13.3053,4.60152,2470.754,2023-8-09T14:05:40Z
2023-08-09T12:06:25Z,42.805,6.029,13.3091,4.60183,2470.754,2023-8-09T14:08:43Z
2023-08-09T12:09:28Z,42.805,6.029,13.3069,4.60143,2470.777,2023-8-09T14:11:46Z
2023-08-09T12:12:31Z,42.805,6.029,13.3053,4.60150,2470.777,2023-8-09T14:14:50Z
2023-08-09T12:15:34Z,42.805,6.029,13.3054,4.60166,2470.763,2023-8-09T14:17:53Z
2023-08-09T12:18:37Z,42.805,6.029,13.3058,4.60127,2470.777,2023-8-09T14:20:56Z
2023-08-09T12:21:40Z,42.805,6.029,13.3057,4.60167,2470.8,2023-8-09T14:23:59Z
2023-08-09T12:24:43Z,42.805,6.029,13.3061,4.60142,2470.777,2023-8-09T14:27:02Z
2023-08-09T12:27:46Z,42.805,6.029,13.3047,4.60170,2470.787,2023-8-09T14:30:05Z
2023-08-09T12:30:49Z,42.805,6.029,13.3042,4.60165,2470.717,2023-8-09T14:33:08Z
2023-08-09T12:33:52Z,42.805,6.029,13.3067,4.60172,2470.777,2023-8-09T14:36:11Z
2023-08-09T12:36:55Z,42.805,6.029,13.3051,4.60185,2470.74,2023-8-09T14:39:14Z
2023-08-09T12:39:59Z,42.805,6.029,13.3057,4.60156,2470.763,2023-8-09T14:42:17Z
2023-08-09T12:43:02Z,42.805,6.029,13.3049,4.60163,2470.787,2023-8-09T14:45:20Z
2023-08-09T12:46:05Z,42.805,6.029,13.3046,4.60193,2470.787,2023-8-09T14:48:23Z
2023-08-09T12:49:08Z,42.805,6.029,13.3051,4.60211,2470.787,2023-8-09T14:51:27Z
2023-08-09T12:52:11Z,42.805,6.029,13.3061,4.60179,2470.74,2023-8-09T14:54:30Z
2023-08-09T12:55:14Z,42.805,6.029,13.3075,4.60173,2470.777,2023-8-09T14:57:33Z
2023-08-09T12:58:17Z,42.805,6.029,13.3091,4.60165,2470.8,2023-8-09T15:00:36Z
2023-08-09T13:01:20Z,42.805,6.029,13.3101,4.60155,2470.777,2023-8-09T15:03:39Z
2023-08-09T13:04:23Z,42.805,6.029,13.3064,4.60170,2470.8,2023-8-09T15:06:42Z
2023-08-09T13:07:26Z,42.805,6.029,13.3082,4.60177,2470.777,2023-8-09T15:09:45Z
2023-08-09T13:10:29Z,42.805,6.029,13.3079,4.60191,2470.754,2023-8-09T15:12:48Z
2023-08-09T13:13:32Z,42.805,6.029,13.3049,4.60156,2470.824,2023-8-09T15:15:51Z
2023-08-09T13:16:35Z,42.805,6.029,13.3066,4.60188,2470.763,2023-8-09T15:18:54Z
2023-08-09T13:19:39Z,42.805,6.029,13.3047,4.60188,2470.81,2023-8-09T15:21:57Z
2023-08-09T13:22:42Z,42.805,6.029,13.3051,4.60151,2470.777,2023-8-09T15:25:00Z
2023-08-09T13:25:45Z,42.805,6.029,13.3046,4.60171,2470.81,2023-8-09T15:28:04Z
2023-08-09T13:28:48Z,42.805,6.029,13.3048,4.60129,2470.777,2023-8-09T15:31:07Z
2023-08-09T13:31:51Z,42.805,6.029,13.3055,4.60168,2470.763,2023-8-09T15:34:10Z
2023-08-09T13:34:54Z,42.805,6.029,13.3055,4.60137,2470.824,2023-8-09T15:37:13Z
2023-08-09T13:37:57Z,42.805,6.029,13.3050,4.60125,2470.8,2023-8-09T15:40:16Z
2023-08-09T13:41:00Z,42.805,6.029,13.3047,4.60156,2470.763,2023-8-09T15:43:19Z
2023-08-09T13:44:03Z,42.805,6.029,13.3048,4.60122,2470.754,2023-8-09T15:46:22Z
2023-08-09T13:47:06Z,42.805,6.029,13.3049,4.60168,2470.8,2023-8-09T15:49:25Z
2023-08-09T13:50:09Z,42.805,6.029,13.3069,4.60132,2470.763,2023-8-09T15:52:28Z
2023-08-09T13:53:12Z,42.805,6.029,13.3048,4.60180,2470.763,2023-8-09T15:55:31Z
2023-08-09T13:56:16Z,42.805,6.029,13.3051,4.60144,2470.824,2023-8-09T15:58:34Z
2023-08-09T13:59:19Z,42.805,6.029,13.3097,4.60173,2470.763,2023-8-09T16:01:37Z
2023-08-09T14:02:22Z,42.805,6.029,13.3048,4.60185,2470.787,2023-8-09T16:04:41Z
2023-08-09T14:05:25Z,42.805,6.029,13.3058,4.60199,2470.777,2023-8-09T16:07:44Z
2023-08-09T14:08:28Z,42.805,6.029,13.3067,4.60137,2470.787,2023-8-09T16:10:47Z
2023-08-09T14:11:31Z,42.805,6.029,13.3064,4.60164,2470.763,2023-8-09T16:13:50Z
2023-08-09T14:14:34Z,42.805,6.029,13.3067,4.60161,2470.787,2023-8-09T16:16:53Z
2023-08-09T14:17:37Z,42.805,6.029,13.3091,4.60138,2470.787,2023-8-09T16:19:56Z
2023-08-09T14:20:40Z,42.805,6.029,13.3053,4.60163,2470.777,2023-8-09T16:22:59Z
2023-08-09T14:23:43Z,42.805,6.029,13.3071,4.60162,2470.8,2023-8-09T16:26:02Z
2023-08-09T14:26:46Z,42.805,6.029,13.3069,4.60173,2470.81,2023-8-09T16:29:05Z
2023-08-09T14:29:49Z,42.805,6.029,13.3090,4.60178,2470.787,2023-8-09T16:32:08Z
2023-08-09T14:32:52Z,42.805,6.029,13.3073,4.60126,2470.787,2023-8-09T16:35:11Z
2023-08-09T14:35:55Z,42.805,6.029,13.3061,4.60170,2470.777,2023-8-09T16:38:14Z
2023-08-09T14:38:58Z,42.805,6.029,13.3071,4.60176,2470.754,2023-8-09T16:41:17Z
2023-08-09T14:42:01Z,42.805,6.029,13.3070,4.60162,2470.8,2023-8-09T16:44:20Z
2023-08-09T14:45:04Z,42.805,6.029,13.3092,4.60154,2470.74,2023-8-09T16:47:23Z
2023-08-09T14:48:07Z,42.805,6.029,13.3105,4.60135,2470.763,2023-8-09T16:50:26Z
2023-08-09T14:51:10Z,42.805,6.029,13.3108,4.60162,2470.777,2023-8-09T16:53:29Z
2023-08-09T14:54:13Z,42.805,6.029,13.3124,4.60143,2470.8,2023-8-09T16:56:32Z
2023-08-09T14:57:16Z,42.805,6.029,13.3112,4.60144,2470.754,2023-8-09T16:59:35Z
2023-08-09T15:00:19Z,42.805,6.029,13.3104,4.60125,2470.777,2023-8-09T17:02:38Z
2023-08-09T15:03:23Z,42.805,6.029,13.3111,4.60136,2470.787,2023-8-09T17:05:41Z
2023-08-09T15:06:26Z,42.805,6.029,13.3119,4.60145,2470.8,2023-8-09T17:08:44Z
2023-08-09T15:09:29Z,42.805,6.029,13.3121,4.60118,2470.787,2023-8-09T17:11:48Z
2023-08-09T15:12:32Z,42.805,6.029,13.3114,4.60119,2470.777,2023-8-09T17:14:51Z